Погода в Новом

Россия / Сахалинская область     48°53′07″N   142°56′35″E
темп.,
°C
ветер,
м/с
пор.,
м/с
влажн.,
%
обл.,
%
осадки,
мм/ч
давл.,
гПа
погр.,
м
26 февраля, пт
пт2623:00−10сз3495100 0.8 1015170
02:00−9с3695100 0.9 1016280
05:00−10с4795100 1.6 1015299
08:00−11с4795100 0.5 1016251
11:00−10ссв4694100 1.1 1016334
14:00−9ссв3492100 0.4 1017355
17:00−8ссв3492100 0.6 1017386
20:00−10с4789100 0.3 1019266
27 февраля, сб
сб2723:00−12с4587100 0.3 1021156
02:00−13ссз2386100 0.0 102357
05:00−15ссз2384100 0.0 102448
08:00−17зсз238071 0.0 102624
11:00−13з117535 0.0 1027121
14:00−10юв22800 0.0 1027316
17:00−8ююв23860 0.0 1027184
20:00−13зюз11910 0.0 102720
28 февраля, вс
вс2823:00−14з22764 0.0 102621
02:00−12зюз117345 0.0 102321
05:00−10ю458771 0.0 1019103
08:00−7ю6994100 0.2 1015318
11:000юз51181100 0.9 1012885
14:000з5976100 0.0 1010948
17:000з487578 0.0 1010450
20:00−4з2380100 0.0 101241
1 марта, пн
пн123:00−4зсз4984100 0.0 1013200
02:00−9ссз2384100 0.0 101447
05:00−10зюз4582100 0.0 101670
08:00−12з348036 0.0 101866
11:00−10с248419 0.0 1019371
14:00−8зсз366465 0.0 10211197
17:00−10зсз587134 0.0 1022831
20:00−16зсз23810 0.0 102521
2 марта, вт
вт223:00−18зсз12880 0.0 102720
02:00−16з228696 0.0 102734
05:00−16зюз238885 0.0 102839
08:00−17зюз238777 0.0 102828
11:00−14з237689 0.0 1028409
14:00−13ссв2373100 0.0 1027688
17:00−14ссв4489100 0.1 1025379
20:00−16ссз4588100 0.0 1025162